FALCON 9 R/B (44050 NORAD) Tracking and Keplerian Element Data

This shows tracking and keplerian element data for the satellite.

Feedback or suggestion? Click here.




ElementValue
Catalog44050
NameFALCON 9 R/B
Epoch Orbit21
Epoch Day74.3718183
Epoch Year2019
RAAN7.7218
Inclination27.5587
Eccentricity0.8375778
Argument of Perigee185.4559
Mean Anonmoly146.9921
Mean Motion1.05510686
Decay Rate9.799E-05
L11 44050U 19009C 19074.37181830 .00009799 00000-0 90038-2 0 9990
L22 44050 27.5587 7.7218 8375778 185.4559 146.9921 1.05510686 213



Live tracking and technical data element details for FALCON 9 R/B (NORAD 44050). FALCON 9 R/B can be tracked NOW for your location showing map with azimuth and elevation plus other details from your city location.







IsCatalogInMostPopularTable: catalog: 44050, numindb: 314
Update: records affected: 1



GetName: 44050 FALCON 9 R/B

Hit Count: updated at: Fri, 16 May 2025 11:38:06 GMT